RH
99 99 99 99 99 100 100 100 100 100 100 100 100 100 100 100 100 100 99 100 99 99 99 99 97 96 97 97 94 92 90 88 85 83 80 78 75 72 70 69 66 62 59 59 59 58 58 57 57 56 56 56 56 55 54 54 53 53 53 52 52 51 51
92 92 92 92 93 94 95 95 96 97 97 97 97 98 98 99 98 97 96 96 94 93 93 91 88 87 87 88 85 83 82 81 80 78 76 74 72 70 69 68 66 64 60 58 58 59 58 57 57 56 55 56 57 57 57 57 57 58 58 57 57 57 56
76 77 78 79 80 80 82 83 84 85 86 86 87 89 90 91 90 89 87 85 83 82 81 79 76 75 75 75 73 72 71 71 71 71 70 69 69 68 67 67 67 65 59 54 51 52 51 51 52 51 51 53 55 55 57 58 60 62 63 64 65 65 65
61 64 66 68 70 72 74 76 78 79 81 81 82 83 84 85 85 84 83 81 80 79 78 76 75 74 75 75 74 73 73 73 73 72 71 70 70 68 67 67 65 60 54 46 40 39 41 43 44 43 43 47 50 51 54 57 60 63 66 69 70 72 72
52 54 56 58 60 62 63 64 67 69 71 72 72 73 74 75 76 76 76 76 76 76 76 75 73 72 71 70 67 65 65 65 64 63 61 58 57 56 55 54 52 49 45 40 34 33 35 36 36 36 36 39 42 45 48 52 56 60 65 69 71 74 75
41 42 43 44 45 46 46 46 48 49 51 52 53 53 54 55 56 56 56 56 57 57 57 56 54 54 53 52 50 48 49 49 49 49 47 46 45 46 46 45 44 43 42 40 37 37 37 37 37 37 37 37 39 42 44 45 49 53 57 61 65 70 75
40 41 41 42 42 43 43 43 44 45 46 47 47 47 48 47 47 47 47 47 47 47 46 46 45 45 45 45 44 44 44 45 45 45 44 44 45 45 45 44 44 44 44 42 41 41 40 40 41 41 41 40 41 42 43 44 46 48 51 55 61 66 71
49 49 49 49 49 49 49 49 49 49 50 50 50 50 49 49 48 48 47 47 46 46 46 46 46 45 45 45 45 45 45 45 45 45 44 45 46 46 46 45 45 45 45 44 44 43 43 44 44 43 43 43 44 44 43 45 47 48 50 53 56 57 60
55 56 56 56 55 54 54 53 53 53 52 52 52 51 51 51 50 50 49 49 48 48 48 48 48 48 48 48 48 48 48 48 48 48 47 47 48 48 48 47 48 47 47 47 46 46 46 47 46 46 46 46 46 46 47 48 49 48 48 51 52 51 53
59 59 60 60 60 59 59 58 57 57 56 56 55 55 54 54 54 53 52 52 51 51 51 51 51 51 50 50 50 50 50 50 51 50 50 50 51 51 51 50 50 50 50 50 50 49 50 50 49 49 50 50 51 52 52 52 52 51 52 53 52 51 52
64 64 64 64 64 65 65 65 64 63 63 62 61 60 59 59 58 57 56 56 55 55 55 55 55 55 54 54 54 54 54 54 54 54 54 54 54 54 53 53 53 52 53 53 53 53 53 53 52 52 54 55 56 57 58 58 58 57 57 56 55 54 54
72 72 71 71 70 71 71 71 71 71 70 69 69 67 65 64 63 62 61 61 60 59 59 59 59 59 58 58 58 58 59 59 58 58 58 58 57 57 56 56 56 55 55 55 55 55 55 54 54 55 56 57 57 58 59 58 58 57 56 57 56 54 55
81 81 80 79 78 77 77 77 77 77 77 76 75 73 71 69 67 65 65 65 65 64 63 62 62 62 61 62 62 62 62 62 62 61 61 61 60 60 59 58 58 57 57 56 56 55 55 54 53 53 53 52 53 55 55 53 53 53 53 54 54 56 62
89 89 89 88 86 85 84 84 83 82 81 79 78 77 76 74 71 69 68 68 68 67 65 64 64 63 62 63 63 63 63 63 63 63 63 63 63 62 61 60 59 58 57 56 55 54 53 52 51 50 49 49 51 52 53 53 53 54 55 56 57 60 66
92 92 92 91 90 89 88 88 87 86 84 82 81 80 79 78 76 74 72 71 70 69 68 66 65 64 63 63 63 64 65 65 65 65 65 64 64 63 63 62 60 58 56 54 53 52 51 50 49 49 49 49 50 52 54 55 56 57 57 57 57 58 60
84 83 83 83 82 81 81 81 81 81 79 79 78 77 76 76 74 73 72 70 69 68 67 66 65 64 63 63 63 65 66 67 67 67 66 65 65 64 64 63 61 59 57 55 54 53 52 52 51 51 50 49 49 51 53 57 58 57 55 55 58 61 66
70 69 69 69 68 68 68 67 67 68 67 67 67 67 67 66 66 65 65 65 64 64 64 64 64 63 63 63 63 64 66 67 67 66 65 64 64 64 63 62 61 59 57 56 55 54 53 52 51 50 49 48 48 50 53 56 55 54 57 63 70 75 81
58 58 57 57 57 57 57 56 56 56 56 56 56 56 56 56 57 57 57 57 57 57 58 58 58 59 59 59 59 59 60 60 60 59 59 58 58 57 57 56 55 54 54 54 53 53 52 51 50 50 50 50 52 55 57 58 58 63 72 79 84 89 95
49 49 49 49 48 48 48 48 48 48 48 48 49 49 49 49 49 49 49 49 49 49 49 50 50 51 52 51 51 51 51 51 52 52 52 51 51 50 49 49 50 51 51 52 53 54 54 53 53 54 56 57 60 64 68 71 75 83 88 89 92 97 100
42 42 42 42 42 42 42 41 42 42 41 42 42 42 43 43 43 43 43 43 43 43 43 43 44 44 44 45 45 45 44 45 46 47 47 47 47 46 44 45 49 50 51 54 56 57 58 58 58 58 59 62 64 68 74 80 86 91 94 96 99 101 101
28 28 28 28 28 28 28 28 29 29 29 30 31 30 30 31 32 33 34 35 36 37 37 38 39 39 39 40 40 40 40 40 41 43 45 45 44 44 44 46 49 50 53 57 59 61 62 62 62 61 61 64 67 71 79 87 92 94 97 99 100 101 100
16 17 17 16 16 17 17 17 17 17 17 17 17 17 17 17 18 18 20 21 23 24 25 26 27 29 30 31 32 34 34 35 36 38 40 41 42 45 47 49 51 52 55 59 62 65 67 66 65 65 65 68 74 80 88 95 98 99 100 100 100 101 101
18 18 17 17 18 18 18 18 18 17 17 16 16 17 16 15 15 14 13 13 13 13 14 14 15 16 17 19 21 23 25 28 31 33 35 38 42 46 50 54 55 54 55 60 65 69 70 70 71 74 76 81 88 94 98 100 101 100 100 100 100 100 100
21 20 20 19 19 19 19 19 19 19 19 20 21 21 21 21 20 19 18 17 16 15 14 13 12 12 12 12 13 14 17 20 24 27 30 34 39 45 53 59 61 58 57 62 67 70 73 79 84 88 92 95 99 100 100 100 101 100 100 100 100 100 100
21 20 20 20 19 19 19 18 18 18 19 20 21 22 23 23 23 24 24 23 21 21 21 20 19 18 17 16 15 15 17 19 22 26 29 33 38 45 55 61 64 64 65 68 72 77 85 93 97 98 100 100 100 100 100 100 100 100 100 100 99 100 100
22 22 21 21 20 20 20 20 20 20 19 21 23 23 24 26 28 29 28 27 26 28 28 29 29 28 26 25 25 26 27 28 30 33 37 41 45 50 57 63 66 70 74 79 86 92 98 100 100 100 101 100 100 100 100 100 100 100 100 100 100 100 100
24 24 23 23 22 22 21 21 22 22 23 26 28 29 32 36 36 34 31 31 34 38 38 38 38 38 39 38 38 39 41 41 42 43 45 48 52 56 60 63 68 77 86 93 98 101 101 100 100 100 100 100 100 100 100 100 100 100 100 100 100 100 99
27 27 26 25 24 24 23 22 23 26 31 34 35 38 41 41 39 36 35 37 44 49 50 48 47 47 48 49 48 48 49 50 51 51 52 53 56 59 61 62 69 83 95 99 100 101 100 100 101 100 100 100 100 100 100 100 100 100 100 100 100 100 99
31 31 30 30 28 27 26 25 28 35 41 43 44 48 50 49 47 47 46 50 58 62 60 57 56 55 54 55 55 54 55 56 56 57 58 58 58 59 62 65 74 88 98 101 100 100 100 100 100 100 100 100 100 100 100 100 100 100 100 100 100 100 99
36 35 35 34 32 31 32 31 32 38 43 47 53 59 61 64 65 59 55 62 73 75 71 67 66 64 62 61 60 60 61 62 62 62 62 63 66 69 72 77 84 93 99 101 100 100 100 100 100 100 100 100 100 100 100 100 100 100 100 100 101 100 100
44 42 41 39 36 36 37 37 38 40 43 48 55 61 67 74 73 64 63 74 84 85 83 83 81 76 73 71 68 67 68 67 67 67 66 68 76 84 89 92 94 98 100 100 100 100 100 100 100 100 100 100 100 100 100 100 100 100 101 101 100 97 93
52 50 48 46 44 42 41 41 43 45 48 53 58 63 71 75 69 64 71 83 88 89 90 93 91 88 86 84 79 76 75 74 73 73 72 74 82 92 97 99 99 100 100 100 100 100 100 100 100 100 100 100 100 100 100 101 101 102 101 98 94 90 88
60 58 55 52 51 50 47 46 47 48 52 57 61 68 74 72 67 70 79 86 88 90 93 94 95 94 94 93 91 89 86 83 81 81 80 83 89 96 99 100 100 100 100 100 100 100 100 100 100 100 100 100 100 100 101 102 103 102 100 96 92 92 93
69 66 63 59 58 57 55 53 52 53 56 59 62 67 70 69 71 79 85 86 86 89 92 94 96 96 96 96 97 98 98 95 92 92 92 94 98 100 100 100 101 100 100 100 100 100 100 100 100 100 101 100 100 100 101 101 101 101 100 98 97 96 97
74 73 70 66 64 64 63 61 59 60 61 63 64 67 68 69 74 81 86 88 89 91 92 94 95 97 98 98 99 100 102 103 102 101 101 102 104 103 101 101 101 100 100 100 100 100 100 100 100 100 100 100 100 100 100 100 101 101 101 99 98 96 94
75 75 74 73 70 69 68 67 66 66 67 69 70 70 70 72 76 81 87 91 93 94 95 96 96 96 97 98 98 100 103 105 105 103 101 102 103 103 102 101 100 100 100 100 100 100 100 100 100 101 101 101 101 102 103 103 103 102 100 98 96 95 93
Wind_Speed
43 44 44 45 45 45 45 45 45 45 46 46 47 47 48 48 49 49 49 50 50 51 52 52 53 53 53 54 54 54 54 54 54 54 55 55 55 55 55 55 56 56 56 55 55 54 53 52 52 52 53 53 53 54 55 55 56 56 57 57 57 57 57
41 41 42 43 44 44 45 45 45 46 46 47 47 48 48 48 49 49 49 49 50 50 51 51 52 52 52 53 53 53 53 53 53 54 54 54 55 54 54 54 55 55 55 54 54 53 53 52 52 51 51 52 53 53 54 55 55 56 57 57 58 58 58
37 38 38 38 39 40 40 41 42 43 44 45 45 46 46 47 47 48 48 48 48 49 49 50 50 50 50 51 51 51 51 51 51 52 52 52 52 52 52 52 53 53 53 52 52 52 52 52 52 52 51 52 53 53 54 55 55 56 56 57 57 58 58
35 35 35 35 35 36 36 37 38 38 39 40 41 42 43 43 44 45 46 46 46 47 48 48 48 48 48 49 49 49 49 49 49 49 49 50 50 50 50 51 51 51 51 51 51 52 52 52 53 53 53 53 53 54 54 55 56 56 56 57 57 57 58
34 34 34 34 34 34 35 35 35 35 36 36 37 38 38 39 39 40 41 41 42 42 43 44 44 44 44 44 45 44 44 45 45 45 46 46 46 47 47 48 49 49 50 50 51 51 52 52 53 53 54 54 54 54 54 55 56 56 56 57 57 57 58
34 34 34 34 34 34 34 34 34 34 34 34 35 35 35 35 36 36 37 37 37 38 38 39 39 39 39 40 40 40 40 41 41 42 43 43 44 45 46 47 48 48 49 50 50 51 52 53 53 54 54 55 55 55 55 55 55 55 55 55 55 56 57
34 34 34 34 34 34 34 35 35 35 35 35 35 35 35 35 35 36 36 36 37 37 38 38 38 39 39 40 41 41 41 41 42 43 43 44 44 45 46 47 48 48 50 50 51 52 53 54 54 54 55 56 56 56 56 56 55 54 54 53 54 54 55
35 35 35 35 35 36 36 36 36 36 37 37 37 37 38 38 38 38 39 39 39 39 40 40 40 41 41 41 42 42 43 43 44 45 46 46 46 47 48 49 49 50 51 52 53 53 54 55 55 56 57 57 58 58 58 56 55 55 54 54 55 55 56
36 36 36 37 37 37 37 38 38 38 39 39 39 40 40 40 41 41 41 41 41 42 42 42 42 43 43 43 44 44 45 46 46 47 48 48 49 50 50 51 52 52 53 54 55 55 55 56 57 58 58 59 59 59 58 57 57 58 57 57 58 58 59
38 38 38 38 38 39 39 40 40 40 41 41 42 42 42 43 43 43 44 44 44 44 44 45 45 45 45 46 46 47 48 48 49 49 50 50 51 52 52 53 54 54 55 56 57 57 57 58 59 59 60 60 60 59 59 59 59 59 59 60 61 61 61
40 40 40 40 40 40 41 41 42 42 43 43 44 44 45 45 45 46 46 47 47 47 47 48 48 48 49 49 49 50 50 51 51 52 52 53 53 54 54 55 56 56 57 57 58 58 59 59 60 59 59 59 59 59 59 59 59 60 60 61 62 62 62
42 42 43 43 43 43 43 44 44 45 45 46 46 47 48 48 49 49 49 50 50 51 51 51 51 51 52 52 52 53 53 53 53 54 54 55 56 56 57 57 58 58 59 59 60 60 60 60 60 59 59 58 58 58 57 57 58 59 60 61 61 62 62
44 45 46 46 47 47 47 47 48 48 48 49 49 50 51 52 53 53 53 53 53 54 54 55 55 55 55 55 55 55 56 56 56 56 57 57 58 58 59 59 59 60 60 61 61 61 62 61 60 60 59 58 57 56 57 58 59 59 60 61 61 61 61
48 48 49 49 50 50 51 51 51 51 52 52 53 53 54 55 56 56 56 56 56 57 57 58 58 59 58 58 58 58 58 59 59 59 59 59 60 60 60 61 61 61 61 61 62 62 62 61 60 60 59 58 57 58 58 59 59 60 60 61 62 62 62
51 51 52 52 53 53 53 53 53 54 55 56 56 56 57 57 58 59 59 58 58 59 59 60 61 61 61 60 60 60 60 61 61 61 61 61 61 61 61 62 62 62 62 61 62 62 62 62 61 61 60 59 59 59 59 59 60 61 62 63 64 64 64
54 54 54 55 55 56 56 55 55 56 57 57 58 59 59 59 60 61 61 61 60 60 61 61 62 62 62 62 61 61 61 62 62 63 63 63 63 62 62 62 62 62 62 62 62 63 63 62 62 62 61 61 60 59 59 59 60 62 63 64 64 63 62
55 55 55 56 56 57 57 57 57 57 57 58 58 59 59 60 61 62 62 62 61 61 61 61 61 61 62 62 62 62 62 62 63 64 64 64 64 64 64 63 62 62 63 63 62 62 62 61 62 62 61 60 59 58 58 59 60 61 62 61 61 60 60
56 56 56 56 57 57 57 58 58 57 57 57 57 58 58 59 60 61 61 62 61 61 61 61 60 60 60 61 61 62 62 62 63 63 64 64 64 64 64 63 62 62 62 61 60 59 59 60 60 59 59 58 57 57 57 57 58 58 58 58 59 59 58
58 58 58 59 59 59 60 60 59 59 58 58 58 58 59 60 60 61 62 62 62 62 62 61 60 60 60 61 61 61 61 61 62 62 62 62 62 63 63 61 60 60 59 58 57 57 57 57 57 57 56 56 56 55 55 55 56 56 56 57 57 57 57
61 61 61 61 61 61 61 62 62 61 61 61 61 60 61 61 62 62 62 63 63 63 62 62 62 61 61 60 60 61 61 61 61 61 61 61 61 62 62 60 59 58 57 56 56 56 55 56 57 56 56 56 55 55 55 55 56 56 56 56 56 57 57
60 61 60 60 60 60 60 61 61 61 62 62 61 61 61 62 62 62 62 63 63 63 63 63 63 62 60 60 60 60 60 60 60 60 60 61 61 61 61 59 59 58 56 56 56 56 56 57 57 57 57 56 56 55 54 55 56 56 56 56 56 57 57
57 57 57 57 56 56 57 57 57 58 59 59 59 59 59 59 60 60 61 62 63 62 63 63 63 62 60 60 59 58 58 59 59 59 59 60 59 59 58 58 58 57 56 56 56 56 56 57 57 57 56 55 54 54 53 53 54 54 55 55 56 56 57
54 54 54 53 53 52 52 52 53 53 54 55 55 54 54 54 55 56 58 59 60 60 60 61 61 61 61 61 60 58 58 57 57 57 57 57 56 56 56 55 56 56 55 54 54 54 55 56 55 55 54 52 51 51 51 51 52 53 54 55 55 56 56
51 51 51 51 51 50 50 50 50 50 51 50 50 50 50 51 51 52 53 54 55 56 56 57 57 58 58 58 58 57 57 56 55 55 55 54 54 53 52 51 52 53 53 52 52 52 52 52 52 51 50 49 48 47 48 49 50 52 53 54 54 54 54
48 49 49 49 49 48 48 48 48 48 48 48 48 48 49 49 49 49 50 51 51 52 52 52 52 53 53 54 53 53 53 53 52 52 52 51 51 50 49 48 49 49 49 49 50 49 49 48 47 47 46 45 45 45 46 48 49 50 51 52 52 51 50
47 47 47 47 48 48 47 47 46 46 47 47 46 46 46 47 47 47 48 49 49 48 48 47 47 48 49 49 49 48 48 48 47 47 47 47 47 46 46 46 45 45 45 45 45 45 45 45 44 44 44 43 43 44 45 46 47 48 48 48 47 47 46
45 45 45 46 46 46 46 46 46 46 45 44 43 43 43 43 45 46 47 46 45 44 44 44 44 44 45 46 46 45 45 45 44 43 43 42 42 42 42 42 41 41 41 41 41 41 42 42 41 41 41 40 40 42 43 44 44 44 44 44 43 43 44
43 43 43 44 44 44 44 44 44 42 41 40 40 40 41 42 44 45 45 43 42 41 41 42 41 41 42 42 43 43 42 42 41 40 40 39 39 38 39 38 38 37 37 37 37 38 39 39 38 38 38 38 38 40 41 41 41 41 41 41 41 42 42
41 41 41 41 42 42 42 42 40 38 37 38 38 38 39 40 41 42 41 40 38 38 39 40 40 40 39 39 40 40 40 39 39 38 37 37 36 36 36 35 34 34 34 34 35 36 37 38 38 38 38 38 38 38 38 38 39 39 40 41 41 42 42
40 40 39 40 40 40 39 39 38 37 36 36 35 36 36 37 38 40 39 37 35 36 37 38 38 38 38 38 38 37 37 37 36 35 35 34 34 34 33 32 32 31 32 33 35 36 37 38 38 39 39 38 38 38 38 38 39 40 40 41 42 43 43
39 39 39 39 39 38 37 38 38 37 36 35 34 34 34 35 37 39 37 34 33 35 36 36 37 36 36 36 37 36 35 35 34 34 33 32 32 31 31 30 30 30 31 33 34 35 36 37 37 38 38 38 38 39 39 39 40 41 42 43 43 44 44
37 38 38 39 38 38 38 37 37 37 36 35 34 34 33 35 37 37 34 31 32 34 34 35 35 35 34 34 35 34 34 34 33 33 32 32 31 31 31 31 31 32 32 33 35 36 36 37 37 38 38 39 40 40 41 41 42 42 43 43 44 44 43
36 37 37 37 37 38 38 37 37 36 35 35 34 34 34 36 36 34 32 31 32 33 34 34 35 34 34 33 33 33 33 33 32 32 31 31 31 31 32 33 34 34 35 35 36 37 37 38 38 39 39 40 41 41 42 42 43 43 43 44 44 44 43
35 35 36 36 36 37 38 38 37 37 36 35 35 34 35 36 35 32 31 32 32 32 33 34 34 34 33 33 33 33 32 32 32 32 31 30 31 31 32 33 34 36 37 38 39 39 39 39 40 41 41 42 42 43 43 44 44 44 44 44 43 43 42
32 34 35 35 35 36 37 37 37 37 36 36 35 35 36 36 35 33 32 31 32 32 33 33 33 33 33 33 33 33 33 32 32 32 31 31 31 31 31 32 33 35 36 38 40 41 41 42 42 43 43 43 44 44 44 44 44 43 42 41 40 40 39
31 32 33 34 35 35 36 37 37 36 36 36 36 36 36 35 35 34 32 31 31 31 32 32 33 33 33 32 33 33 33 33 33 32 32 32 32 32 32 32 32 33 34 36 37 39 40 41 41 42 42 42 42 42 41 40 40 39 38 37 37 37 37
Wind_Direction
252 252 253 254 254 255 255 255 255 255 254 255 255 255 254 254 254 255 255 255 255 255 256 256 257 257 257 257 258 259 259 259 260 260 261 261 262 262 263 264 265 267 269 270 270 269 269 267 267 267 267 267 267 267 267 268 268 268 268 269 269 268 268
257 257 258 258 258 259 259 260 260 260 260 260 261 260 260 259 259 259 259 258 258 258 258 258 259 259 259 259 259 260 260 260 261 261 262 262 263 264 264 265 266 268 269 270 270 271 271 270 269 268 268 268 268 268 268 268 268 268 269 269 269 269 269
260 260 260 260 260 260 260 260 260 261 261 261 261 261 261 261 261 261 260 260 260 260 260 260 260 260 260 260 261 261 261 261 261 262 262 263 263 264 265 266 266 268 269 270 270 271 271 271 271 271 270 270 269 269 269 269 269 269 269 269 269 270 270
260 260 260 260 259 259 259 259 259 259 259 259 260 260 260 260 260 260 260 261 261 261 261 261 261 262 262 261 262 262 262 262 262 262 263 264 264 265 266 266 267 268 268 269 270 270 271 272 272 272 272 271 271 271 270 270 270 270 270 270 270 270 270
260 259 259 259 258 258 258 258 258 257 257 257 257 257 257 257 257 257 257 258 258 259 259 260 261 261 262 262 262 262 262 262 263 263 264 264 265 265 266 267 267 268 268 269 270 271 272 272 272 273 273 273 273 272 272 271 271 270 270 270 270 271 271
259 258 258 257 257 257 256 256 256 256 255 255 255 255 254 254 254 254 255 255 255 255 256 256 257 258 259 260 260 261 262 263 264 264 265 265 266 266 267 267 268 268 269 269 270 271 271 272 272 273 273 273 273 273 272 272 271 271 271 272 272 272 271
258 258 257 257 256 256 255 255 254 254 254 254 255 255 254 254 254 254 255 255 256 256 257 257 257 258 259 260 261 262 263 263 264 264 265 265 266 267 267 267 268 269 269 270 270 270 271 271 272 272 272 272 272 272 272 272 273 274 274 273 272 272 271
259 258 258 257 256 256 255 255 254 254 255 255 255 256 256 256 257 257 257 257 258 258 259 259 260 260 261 262 263 264 264 265 265 265 266 266 267 267 267 268 268 268 269 269 270 270 270 270 271 271 271 272 272 272 273 274 274 274 273 272 271 271 270
260 260 260 259 259 258 258 257 257 257 257 257 258 258 259 259 259 260 260 260 260 261 262 262 263 263 264 264 265 265 266 266 267 267 268 268 268 268 268 268 268 269 269 269 269 270 270 269 270 270 271 270 271 272 272 272 272 272 271 271 271 270 270
263 262 262 262 262 262 262 261 261 261 261 261 261 261 261 261 262 262 263 263 263 264 265 265 266 266 267 267 267 268 268 268 269 269 269 269 269 268 269 269 269 269 269 269 269 269 269 268 269 269 269 270 270 270 270 270 270 271 271 270 270 270 270
265 265 265 264 264 264 264 264 264 264 264 264 264 264 263 263 264 264 265 265 265 266 266 267 268 268 268 269 269 269 270 270 270 270 270 270 270 269 269 269 269 269 269 269 269 269 268 268 269 269 269 269 269 269 269 270 270 270 269 269 270 270 270
267 267 267 266 266 266 266 266 266 266 266 266 266 266 266 266 266 266 266 266 267 267 268 268 268 269 269 269 270 270 270 270 270 270 271 270 270 270 270 270 270 270 270 270 270 269 269 269 269 269 268 269 269 270 270 269 269 268 269 269 269 270 271
268 268 268 269 269 268 268 268 268 269 268 268 268 268 268 268 267 267 268 268 269 269 269 269 269 269 269 270 270 270 270 270 270 270 270 270 270 270 270 270 270 270 270 270 269 269 269 269 269 269 269 269 269 269 269 268 268 268 269 269 269 270 270
268 269 269 269 269 269 270 270 270 270 270 270 270 270 270 269 269 269 269 270 270 270 270 271 271 270 270 270 270 270 270 270 270 269 269 269 268 269 269 269 269 269 269 269 269 269 269 269 269 269 269 269 268 268 268 268 268 268 268 268 268 268 268
270 270 270 270 270 270 270 270 270 270 270 270 270 270 270 270 270 271 270 270 270 270 271 271 271 271 271 270 270 270 270 270 269 269 268 268 268 268 267 267 268 268 268 268 269 269 269 269 269 269 269 268 267 267 267 267 267 267 267 267 267 268 268
271 271 271 271 271 271 271 271 271 271 271 271 271 271 270 270 270 270 270 270 270 270 270 270 270 270 270 270 270 270 269 269 269 269 268 268 268 267 267 267 267 267 267 267 267 268 268 268 269 269 268 268 267 267 266 266 266 266 266 267 268 269 269
274 274 273 273 273 273 272 272 272 272 272 272 272 272 272 271 271 271 270 270 269 269 268 268 268 268 268 269 269 268 268 268 268 268 268 267 267 267 266 266 266 266 266 266 266 267 268 268 268 268 268 268 267 267 266 265 265 266 267 267 268 268 268
275 275 275 275 275 275 274 274 274 274 273 273 273 272 272 271 271 271 270 270 269 269 268 268 267 267 267 267 267 266 266 266 266 266 266 266 266 265 265 266 266 265 265 266 266 266 267 267 267 268 268 268 267 266 266 266 266 266 266 265 265 266 266
275 275 275 275 275 275 275 274 274 274 273 273 272 272 272 271 271 271 271 271 271 270 270 269 269 268 267 267 267 267 266 266 266 266 266 266 266 266 266 267 267 266 266 266 266 266 266 266 266 266 266 266 265 264 264 264 264 263 263 263 264 264 263
277 276 275 275 274 274 274 274 274 274 273 273 272 272 272 272 271 271 271 271 271 271 271 271 270 269 269 269 269 268 269 269 268 269 269 268 268 269 269 269 268 267 267 267 266 265 265 264 264 264 263 263 263 262 262 261 261 261 261 262 262 262 262
278 277 277 276 276 275 275 274 274 274 273 273 273 272 272 272 272 272 271 271 271 271 271 271 270 270 270 269 268 268 268 268 269 269 269 269 269 269 269 269 268 267 267 266 265 264 264 263 262 262 262 262 262 261 261 260 260 260 260 260 260 260 261
279 279 278 277 277 276 276 275 275 274 274 273 273 272 272 272 272 272 272 271 271 271 271 271 270 270 269 268 267 267 267 267 267 266 267 267 268 268 268 267 267 266 265 264 263 263 262 262 262 262 262 261 261 261 260 259 259 259 259 259 259 260 260
280 280 279 278 278 277 276 276 275 274 274 274 274 273 273 272 272 271 271 271 271 271 271 271 270 270 269 269 268 267 266 265 265 265 265 266 266 266 266 266 266 265 264 263 262 261 261 261 262 262 263 262 262 261 260 259 258 257 257 257 258 259 260
280 280 279 279 278 277 277 276 275 275 275 274 274 273 272 271 271 270 270 271 271 271 270 270 270 270 270 270 269 268 267 267 266 266 266 266 265 265 266 265 265 265 265 263 262 262 262 262 262 263 263 263 262 260 258 256 255 255 255 256 257 258 259
281 280 279 279 278 277 277 276 276 275 275 274 273 272 272 272 271 271 271 270 271 271 270 270 271 270 270 270 270 270 269 268 267 267 266 266 265 265 265 264 264 265 264 263 263 263 262 262 262 263 263 261 259 257 254 252 251 252 253 254 256 257 258
282 281 280 279 278 277 276 276 275 274 274 273 273 273 273 273 273 272 271 271 271 271 271 271 271 271 271 271 271 270 270 269 268 267 266 265 265 264 263 263 263 263 262 262 262 262 261 261 260 260 260 258 255 252 250 249 249 250 252 253 255 257 259
284 283 282 280 279 278 277 275 274 274 273 273 274 273 273 272 271 271 270 271 272 272 272 272 271 271 271 272 271 271 271 270 269 268 266 265 264 262 262 261 260 260 260 259 259 258 257 257 257 256 255 253 251 249 248 248 250 251 253 255 256 258 260
286 285 283 282 281 279 278 277 276 277 276 275 273 272 271 270 269 270 271 272 272 272 272 272 271 270 270 271 271 272 272 271 271 270 268 266 264 262 261 259 258 257 256 255 254 253 253 252 250 250 249 248 247 247 248 250 252 253 255 256 257 259 261
286 285 284 283 282 281 281 280 280 279 277 275 273 272 271 270 270 270 270 271 271 270 270 269 269 269 269 269 270 270 271 271 271 271 270 268 266 264 261 259 257 255 252 251 249 249 248 247 246 245 245 245 246 247 249 251 253 254 255 257 258 260 262
287 286 285 284 283 283 284 283 281 279 277 276 275 274 273 272 272 271 270 270 269 269 268 267 267 267 267 268 267 267 268 269 269 269 268 268 267 265 263 261 257 253 249 246 245 245 245 246 246 247 247 247 247 248 249 251 253 255 256 258 260 262 264
287 287 286 285 285 284 284 283 282 281 280 279 277 276 274 273 272 272 272 272 271 269 267 267 267 266 266 267 267 267 266 266 266 266 265 264 263 262 260 257 255 251 248 245 244 244 244 245 247 248 248 248 248 248 249 251 253 255 257 260 262 264 267
286 286 286 286 286 285 284 283 283 282 282 282 280 279 277 275 273 274 275 274 271 269 267 266 266 265 265 265 266 266 265 264 264 263 262 261 259 257 254 251 249 247 246 245 244 244 244 244 246 247 248 248 248 249 250 252 255 257 260 262 265 268 270
285 284 284 285 285 285 285 284 283 283 283 282 282 280 278 277 277 278 278 275 271 269 268 267 266 265 264 263 263 263 263 262 262 262 261 260 258 255 252 249 246 245 244 245 245 245 245 246 246 247 248 249 250 251 253 255 258 260 263 266 268 270 271
282 282 282 283 283 283 283 283 283 283 283 282 281 280 279 278 279 279 277 274 272 270 268 267 266 266 264 263 262 261 261 260 259 259 259 259 258 256 254 251 248 247 246 246 246 246 247 247 248 249 250 251 253 255 257 259 261 263 265 267 268 269 269
278 279 279 280 280 280 281 281 282 282 282 282 281 280 280 280 280 279 276 275 273 271 269 268 266 265 264 262 261 260 259 258 258 257 257 256 256 256 256 254 252 250 248 247 247 247 247 248 250 251 252 254 255 257 258 260 262 263 264 265 266 266 267
279 278 277 277 277 277 277 278 279 279 280 280 279 279 278 278 279 278 277 275 273 271 270 269 268 266 264 262 260 259 258 257 257 256 256 255 255 255 255 255 255 253 251 250 249 249 250 251 252 253 254 256 257 258 259 260 261 262 263 263 264 265 265